Location: Mercogliano
(40.9167°N, 14.7333°E)
Time: 04:27:48
(UTC+00:00)

CENTAUR R/B - Pass Details

Date: 18 September 2020
Orbit: 755 x 1433 km, 63.4° (Epoch: 02 October)

Event Time Altitude Azimuth Distance (km) Brightness Sun altitude
Rises 17:35:18 0° 326° (NW) 4,036 6.4 -6.6°
Reaches altitude 10° 17:38:44 10° 342° (NNW) 3,187 5.6 -7.3°
Maximum altitude 17:44:35 22° 30° (NNE) 2,547 4.5 -8.4°
Drops below altitude 10° 17:50:53 10° 78° (ENE) 3,476 4.8 -9.5°
Enters shadow 17:51:21 - 80° (E) 3,586 4.8 -9.6°
